Weather History for KSGJ - January, 2014

Change the Weather History Date:

Friday, January 24, 2014

  Actual Average Record
Temperature  
Mean Temperature 40 °F -  
Max Temperature 44 °F 62 °F 82 °F (2002)
Min Temperature 37 °F 44 °F 21 °F (2003)
Degree Days  
Heating Degree Days 24    
Moisture  
Dew Point 25 °F    
Average Humidity 52    
Maximum Humidity 67    
Minimum Humidity 35    
Precipitation  
Precipitation 0.00 in - - ()
Sea Level Pressure  
Sea Level Pressure 30.44 in    
Wind  
Wind Speed 11 mph (North)    
Max Wind Speed 20 mph    
Max Gust Speed 28 mph    
Visibility 10 miles    
Events      
Averages and records for this station are not official NWS values.
T = Trace of Precipitation, MM = Missing Value Source: NWS Daily Summary

Daily Weather History Graph

Daily Weather History Graph

Search for Another Location

Airport or City:

Trip Planner

Search our weather history database for the weather conditions in past years. The results will help you decide how hot, cold, wet, or windy it might be!

Date:

Astronomy

Jan. 24, 2014 Rise Set
Actual Time 7:19 AM EST 5:55 PM EST
Civil Twilight 6:54 AM EST 6:21 PM EST
Nautical Twilight 6:25 AM EST 6:50 PM EST
Astronomical Twilight 5:56 AM EST 7:18 PM EST
Moon 12:51 AM EST (1/24) 12:09 PM EST (1/24)
Length of Visible Light 11h 27m
Length of Day
10h 36m
Last Quarter, 45% of the Moon is Illuminated
Jan 24
Last Quarter
Jan 30
New
Feb 6
First Quarter
Feb 14
Full
Feb 22
Last Quarter

Hourly Weather History & Observations

Time (EST) Temp. Windchill Dew Point Humidity Pressure Visibility Wind Dir Wind Speed Gust Speed Precip Events Conditions
12:58 AM 39.0 °F 34.0 °F 26.1 °F 60% 30.40 in 10.0 mi NW 6.9 mph - N/A   Clear
1:58 AM 39.0 °F 35.7 °F 25.0 °F 57% 30.40 in 10.0 mi WNW 4.6 mph - N/A   Clear
2:58 AM 39.9 °F 33.9 °F 23.0 °F 51% 30.42 in 10.0 mi NW 9.2 mph - N/A   Clear
3:58 AM 42.1 °F 36.1 °F 19.9 °F 41% 30.44 in 10.0 mi NNW 10.4 mph - N/A   Clear
4:58 AM 41.0 °F 33.9 °F 19.0 °F 41% 30.46 in 10.0 mi NNW 12.7 mph - N/A   Clear
5:58 AM 39.9 °F 35.8 °F 19.0 °F 43% 30.50 in 10.0 mi NW 5.8 mph - N/A   Clear
6:58 AM 37.9 °F 30.5 °F 15.1 °F 39% 30.51 in 10.0 mi NNW 11.5 mph - N/A   Clear
7:58 AM 37.0 °F 30.4 °F 12.9 °F 37% 30.52 in 10.0 mi NNW 9.2 mph - N/A   Clear
8:58 AM 37.9 °F 30.0 °F 12.0 °F 35% 30.53 in 10.0 mi NNW 12.7 mph - N/A   Clear
9:58 AM 42.1 °F 33.9 °F 18.0 °F 38% 30.53 in 10.0 mi North 17.3 mph - N/A   Clear
10:58 AM 44.1 °F 36.8 °F 23.0 °F 43% 30.54 in 10.0 mi North 16.1 mph 23.0 mph N/A   Clear
11:58 AM 44.1 °F 35.9 °F 24.1 °F 45% 30.51 in 10.0 mi North 19.6 mph 24.2 mph N/A   Clear
12:58 PM 43.0 °F 34.5 °F 25.0 °F 49% 30.48 in 10.0 mi North 19.6 mph 27.6 mph N/A   Clear
1:58 PM 44.1 °F 36.5 °F 27.0 °F 51% 30.44 in 10.0 mi North 17.3 mph 23.0 mph N/A   Clear
2:58 PM 44.1 °F 37.1 °F 26.1 °F 49% 30.43 in 10.0 mi North 15.0 mph 21.9 mph N/A   Clear
3:58 PM 44.1 °F 37.1 °F 27.0 °F 51% 30.43 in 10.0 mi NNE 15.0 mph 21.9 mph N/A   Clear
4:58 PM 42.1 °F 34.9 °F 27.0 °F 55% 30.43 in 10.0 mi NNE 13.8 mph - N/A   Partly Cloudy
5:58 PM 41.0 °F 35.2 °F 30.9 °F 67% 30.43 in 10.0 mi NNE 9.2 mph - N/A   Scattered Clouds
6:20 PM 41.0 °F 34.3 °F 30.2 °F 65% 30.42 in 10.0 mi NNE 11.5 mph - N/A   Mostly Cloudy
6:51 PM 41.0 °F 33.9 °F 30.2 °F 65% 30.41 in 10.0 mi NE 12.7 mph - N/A   Scattered Clouds
6:58 PM 41.0 °F - 30.0 °F 65% 30.41 in 10.0 mi North - - N/A   Mostly Cloudy
7:58 PM 42.1 °F 34.9 °F 30.0 °F 62% 30.41 in 10.0 mi NE 13.8 mph - N/A   Overcast
8:58 PM 42.1 °F 36.6 °F 30.0 °F 62% 30.40 in 10.0 mi NNE 9.2 mph - N/A   Overcast
9:58 PM 42.1 °F 37.7 °F 28.9 °F 60% 30.38 in 10.0 mi NNE 6.9 mph - N/A   Partly Cloudy
10:58 PM 43.0 °F 38.2 °F 28.9 °F 58% 30.37 in 10.0 mi NNE 8.1 mph - N/A   Mostly Cloudy
11:58 PM 43.0 °F 39.5 °F 32.0 °F 65% 30.34 in 10.0 mi North 5.8 mph - N/A   Mostly Cloudy